Weather History for Aspen, CO

Change the Weather History Date:

Monday, February 18, 2013

  Actual Average Record
Temperature  
Mean Temperature 17 °F 23 °F  
Max Temperature 29 °F 35 °F 48 °F (2004)
Min Temperature 4 °F 10 °F 1 °F (2008)
Degree Days  
Heating Degree Days 48 42  
Month to date heating degree days 784 790  
Since 1 July heating degree days 5529 5912  
Cooling Degree Days 0 0  
Month to date cooling degree days 0 0  
Year to date cooling degree days 0 0  
Moisture  
Dew Point 9 °F    
Average Humidity 59    
Maximum Humidity 80    
Minimum Humidity 37    
Precipitation  
Precipitation T in 0.04 in 0.50 in (1984)
Month to date precipitation 0.23 0.77  
Year to date precipitation 0.74 1.80  
Sea Level Pressure  
Sea Level Pressure 29.95 in    
Wind  
Wind Speed 5 mph (NNW)    
Max Wind Speed 14 mph    
Max Gust Speed 22 mph    
Visibility 7 miles    
Events Snow    
T = Trace of Precipitation, MM = Missing Value Source: NWS Daily Summary

Daily Weather History Graph

Daily Weather History Graph

Search for Another Location

Airport:

Trip Planner

Search our weather history database for the weather conditions in past years. The results will help you decide how hot, cold, wet, or windy it might be!

Date:

Astronomy

Feb. 18, 2013 Rise Set
Actual Time 6:54 AM MST 5:48 PM MST
Civil Twilight 6:27 AM MST 6:15 PM MST
Nautical Twilight 5:56 AM MST 6:46 PM MST
Astronomical Twilight 5:25 AM MST 7:17 PM MST
Moon 11:37 AM MST (2/18) 1:36 AM MST (2/18)
Length of Visible Light 11h 47m
Length of Day
10h 53m
First Quarter, 59% of the Moon is Illuminated
Feb 18
First Quarter
Feb 25
Full
Mar 4
Last Quarter
Mar 11
New
Mar 19
First Quarter

Hourly Weather History & Observations

Time (MST) Temp. Windchill Dew Point Humidity Pressure Visibility Wind Dir Wind Speed Gust Speed Precip Events Conditions
12:15 AM 19.4 °F 9.5 °F 15.8 °F 86% 29.80 in 2.0 mi NNW 8.1 mph - 0.00 in Snow Light Snow
12:23 AM 19.4 °F 7.9 °F 15.8 °F 86% 29.80 in 1.5 mi NW 10.4 mph 19.6 mph 0.00 in Snow Light Snow
12:30 AM 21.2 °F 9.5 °F 15.8 °F 80% 29.81 in 2.0 mi NNW 11.5 mph 19.6 mph 0.00 in Snow Light Snow
12:41 AM 19.4 °F 7.2 °F 14.0 °F 80% 29.81 in 3.0 mi NW 11.5 mph 20.7 mph 0.00 in Snow Light Snow
12:49 AM 19.4 °F 8.6 °F 14.0 °F 80% 29.81 in 2.0 mi NW 9.2 mph 21.9 mph 0.00 in Snow Light Snow
12:53 AM 19.9 °F 8.6 °F 14.0 °F 78% 29.74 in 2.0 mi NNW 10.4 mph 21.9 mph 0.00 in Snow Light Snow
1:02 AM 19.4 °F 6.0 °F 14.0 °F 80% 29.82 in 2.5 mi NNW 13.8 mph 20.7 mph 0.00 in Snow Light Snow
1:12 AM 19.4 °F 7.9 °F 14.0 °F 80% 29.83 in 2.0 mi NNW 10.4 mph - 0.00 in Snow Light Snow
1:53 AM 19.0 °F 9.0 °F 12.0 °F 74% 29.77 in 3.0 mi NW 8.1 mph - 0.00 in Snow Light Snow
2:01 AM 19.4 °F 9.5 °F 12.2 °F 74% 29.85 in 3.0 mi WNW 8.1 mph 17.3 mph 0.00 in Snow Light Snow
2:11 AM 19.4 °F 10.4 °F 12.2 °F 74% 29.85 in 2.5 mi North 6.9 mph - 0.00 in Snow Light Snow
2:44 AM 17.6 °F 8.2 °F 14.0 °F 86% 29.86 in 2.5 mi North 6.9 mph - 0.00 in Snow Light Snow
2:51 AM 17.6 °F 6.4 °F 12.2 °F 79% 29.86 in 3.0 mi North 9.2 mph - 0.00 in Snow Light Snow
2:53 AM 18.0 °F 7.7 °F 12.0 °F 78% 29.81 in 3.0 mi North 8.1 mph - 0.00 in Snow Light Snow
3:07 AM 17.6 °F 7.3 °F 12.2 °F 79% 29.86 in 4.0 mi North 8.1 mph - 0.00 in Snow Light Snow
3:14 AM 17.6 °F 6.4 °F 12.2 °F 79% 29.87 in 2.5 mi North 9.2 mph - 0.00 in Snow Light Snow
3:33 AM 17.6 °F 8.2 °F 12.2 °F 79% 29.87 in 5.0 mi NE 6.9 mph - 0.00 in Snow Light Snow
3:51 AM 17.6 °F 12.3 °F 12.2 °F 79% 29.88 in 10.0 mi NNE 3.5 mph - 0.00 in   Overcast
3:53 AM 17.1 °F 10.0 °F 10.9 °F 77% 29.83 in 10.0 mi NNE 4.6 mph - 0.00 in   Overcast
4:20 AM 15.8 °F - 8.6 °F 73% 29.89 in 10.0 mi Calm Calm - N/A   Overcast
4:53 AM 14.0 °F 6.5 °F 7.0 °F 74% 29.88 in 10.0 mi NNW 4.6 mph - N/A   Mostly Cloudy
5:09 AM 12.2 °F 4.3 °F 8.6 °F 85% 29.92 in 10.0 mi North 4.6 mph - N/A   Mostly Cloudy
5:53 AM 12.0 °F 5.9 °F 6.1 °F 77% 29.98 in 10.0 mi West 3.5 mph - N/A   Mostly Cloudy
6:53 AM 6.1 °F -6.8 °F 1.0 °F 80% 30.03 in 10.0 mi South 8.1 mph - N/A   Scattered Clouds
7:53 AM 12.0 °F 4.1 °F 5.0 °F 73% 30.04 in 10.0 mi South 4.6 mph - N/A   Mostly Cloudy
8:53 AM 15.1 °F - 8.1 °F 74% 30.06 in 10.0 mi Calm Calm - N/A   Mostly Cloudy
9:53 AM 17.1 °F - 7.0 °F 65% 30.05 in 10.0 mi Calm Calm - N/A   Scattered Clouds
10:53 AM 21.0 °F - 5.0 °F 50% 30.06 in 10.0 mi Calm Calm - N/A   Scattered Clouds
11:53 AM 24.1 °F 17.0 °F 3.9 °F 42% 30.05 in 10.0 mi North 5.8 mph - N/A   Scattered Clouds
12:53 PM 25.0 °F 17.1 °F 3.9 °F 41% 30.04 in 10.0 mi North 6.9 mph - N/A   Scattered Clouds
1:53 PM 27.0 °F 18.7 °F 6.1 °F 41% 30.02 in 10.0 mi NE 8.1 mph - N/A   Partly Cloudy
2:53 PM 26.1 °F 19.4 °F 5.0 °F 41% 30.04 in 10.0 mi NW 5.8 mph - N/A   Clear
3:53 PM 27.0 °F - 3.9 °F 37% 30.06 in 10.0 mi Calm Calm - N/A   Clear
4:53 PM 24.1 °F - 3.9 °F 42% 30.11 in 9.0 mi Calm Calm - N/A   Clear
6:53 PM 18.0 °F 7.7 °F 7.0 °F 62% 30.21 in 10.0 mi South 8.1 mph - N/A   Clear
7:53 PM 18.0 °F 7.7 °F 5.0 °F 57% 30.17 in 10.0 mi SSE 8.1 mph - N/A   Clear
8:53 PM 10.9 °F 0.2 °F 1.9 °F 67% 30.21 in 10.0 mi SSW 6.9 mph - N/A   Clear
9:53 PM 10.9 °F -0.8 °F 1.0 °F 64% 30.20 in 10.0 mi SSW 8.1 mph - N/A   Clear
10:53 PM 5.0 °F -4.1 °F -2.0 °F 73% 30.21 in 10.0 mi South 4.6 mph - N/A   Clear
11:53 PM 7.0 °F -5.7 °F -2.0 °F 67% 30.15 in 10.0 mi South 8.1 mph - N/A   Clear